Regional Weather Roundup
Issued by NWS

Home | Current Version | Previous Version | Text Only | Print | Product List | Glossary Off
Versions: 1 2 3 4 5 6 7 8 9 10 11 12 13 14 15 16 17 18 19 20 21 22 23 24 25 26 27 28 29 30 31 32 33 34 35 36 37 38 39 40 41 42 43 44 45 46 47 48 49 50

000
ASUS43 KLSX 251207
RWRMO

WEATHER SUMMARY FOR MISSOURI
NATIONAL WEATHER SERVICE SPRINGFIELD MO
600 AM CST TUE NOV 25 2014

NOTE: "FAIR" INDICATES FEW OR NO CLOUDS BELOW 12,000 FEET WITH NO
       SIGNIFICANT WEATHER AND/OR OBSTRUCTIONS TO VISIBILITY.
       CURRENT SKY AND/OR WEATHER CONDITIONS ARE NOT AVAILABLE FOR
       CHILLICOTHE AND FARMINGTON.

MOZ001>031-035>038-043-044-053-054-251300-
...NORTHERN AND WESTERN MISSOURI...

CITY           SKY/WX    TMP DP  RH WIND       PRES   REMARKS
KANSAS CTY INT CLEAR     22  11  62 NW8       30.18R WCI  12
6HR MIN TEMP:  22; 6HR MAX TEMP:  29;

KANSAS C DTWN  CLEAR     26  11  52 W6        30.19R WCI  19
6HR MIN TEMP:  25; 6HR MAX TEMP:  32;

LEE`S SUMMIT   CLEAR     23  10  57 W6        30.18R WCI  16
6HR MIN TEMP:  23; 6HR MAX TEMP:  31;

ST JOSEPH      CLEAR     21  11  65 W5        30.20R WCI  15
6HR MIN TEMP:  19; 6HR MAX TEMP:  28;

CHILLICOTHE      N/A     24  14  65 NW6       30.17R WCI  17
6HR MIN TEMP:  24; 6HR MAX TEMP:  30;

KIRKSVILLE     CLEAR     22  17  81 NW9       30.12R WCI  12
6HR MIN TEMP:  21; 6HR MAX TEMP:  28;


$$
MOZ066>068-077>081-088>096-101>105-251300-
...SOUTHWEST MISSOURI...

CITY           SKY/WX    TMP DP  RH WIND       PRES   REMARKS
SPRINGFIELD    CLEAR     26  13  57 NW6       30.16R WCI  19
6HR MIN TEMP:  26; 6HR MAX TEMP:  34;

JOPLIN         CLEAR     25  16  68 CALM      30.22R
6HR MIN TEMP:  24; 6HR MAX TEMP:  32;


$$
MOZ032>034-039>042-045>050-055>058-069>072-251300-
...CENTRAL MISSOURI...

CITY           SKY/WX    TMP DP  RH WIND       PRES   REMARKS
COLUMBIA       CLEAR     25  19  78 W10       30.14R WCI  15
6HR MIN TEMP:  25; 6HR MAX TEMP:  31;

JEFFERSON CITY CLEAR     26  19  74 W7        30.16R WCI  18
6HR MIN TEMP:  26; 6HR MAX TEMP:  32;

ROLLA          CLEAR     25  18  74 NW8       30.12R WCI  16
6HR MIN TEMP:  25; 6HR MAX TEMP:  31;

SEDALIA        CLEAR     26  17  68 NW10      30.17R WCI  16
6HR MIN TEMP:  26; 6HR MAX TEMP:  32;

WHITEMAN AFB   CLEAR     23  15  71 W7        30.18R WCI  14
WARRENSBURG    CLEAR     23  14  68 W5        30.19R WCI  17
OSAGE BEACH    CLEAR     28  16  59 W6        30.17R WCI  22

$$
MOZ051-052-059>065-251300-
...EAST CENTRAL MISSOURI...

CITY           SKY/WX    TMP DP  RH WIND       PRES   REMARKS
ST LOUIS INTL  MOCLDY    31  20  63 NW12G18   30.11R WCI  22
6HR MIN TEMP:  30; 6HR MAX TEMP:  35;

SPIRIT OF STL  CLOUDY    29  20  69 W7        30.12R WCI  22
6HR MIN TEMP:  28; 6HR MAX TEMP:  33;

ST CHARLES     CLOUDY    30  22  72 NW13      30.11R WCI  20
6HR MIN TEMP:  30; 6HR MAX TEMP:  34;


$$
MOZ072>076-082>087-097>100-106>115-251300-
...SOUTH CENTRAL AND SOUTHEAST MISSOURI...

CITY           SKY/WX    TMP DP  RH WIND       PRES   REMARKS
CAPE GIRARDEAU CLEAR     30  27  88 W5        30.15R WCI  25
6HR MIN TEMP:  30; 6HR MAX TEMP:  40;

FARMINGTON     FAIR      28  19  69 SW6       30.13R WCI  22
6HR MIN TEMP:  28; 6HR MAX TEMP:  34;

POPLAR BLUFF   CLEAR     30  23  75 SW5       30.16R WCI  25
6HR MIN TEMP:  29; 6HR MAX TEMP:  39;

WEST PLAINS    CLEAR     27  16  63 NW3       30.14R
6HR MIN TEMP:  26; 6HR MAX TEMP:  34;


$$



USA.gov is the U.S. government's official web portal to all federal, state and local government web resources and services.